This is the latest recevied weather packets stored in our database for station/object SV9TNF-1. If no packets are shown the sender has not sent any weather packets the latest 10 day(s).
| Time | Temp. | Humidity | Pressure | Rain* | Wind** | Luminosity | Snow |
|---|---|---|---|---|---|---|---|
| 1777621215 | 17.78° C | 72% | 1003.4 hPa | 0 mm | 1.34 m/s, 153° | - | - |
| 1777620915 | 17.78° C | 73% | 1003.1 hPa | 0 mm | 1.34 m/s, 142° | - | - |
| 1777620615 | 17.78° C | 72% | 1003.1 hPa | 0 mm | 1.34 m/s, 175° | - | - |
| 1777620315 | 17.78° C | 74% | 1003.1 hPa | 0 mm | 1.79 m/s, 112° | - | - |
| 1777620015 | 18.33° C | 74% | 1003.1 hPa | 0 mm | 3.13 m/s, 90° | - | - |
| 1777619715 | 18.33° C | 74% | 1003.1 hPa | 0 mm | 4.02 m/s, 141° | - | - |
| 1777619415 | 18.33° C | 74% | 1003.1 hPa | 0 mm | 1.79 m/s, 127° | - | - |
| 1777619115 | 18.33° C | 74% | 1003.1 hPa | 0 mm | 1.79 m/s, 121° | - | - |
| 1777618814 | 18.33° C | 73% | 1003.1 hPa | 0 mm | 1.34 m/s, 176° | - | - |
| 1777618514 | 18.89° C | 72% | 1003.1 hPa | 0 mm | 1.34 m/s, 129° | - | - |
| 1777618214 | 18.89° C | 72% | 1003.1 hPa | 0 mm | 2.24 m/s, 132° | - | - |
| 1777617914 | 18.89° C | 70% | 1003.1 hPa | 0 mm | 2.68 m/s, 127° | - | - |
| 1777617614 | 19.44° C | 71% | 1003.1 hPa | 0 mm | 1.34 m/s, 158° | - | - |
| 1777617314 | 19.44° C | 70% | 1003.1 hPa | 0 mm | 1.34 m/s, 167° | - | - |
| 1777617014 | 19.44° C | 70% | 1003.1 hPa | 0 mm | 1.79 m/s, 154° | - | - |
| 1777616714 | 20.56° C | 69% | 1003.1 hPa | 0 mm | 1.79 m/s, 131° | - | - |
| 1777616414 | 19.44° C | 71% | 1003.1 hPa | 0 mm | 1.79 m/s, 123° | - | - |
| 1777616114 | 20° C | 70% | 1003.1 hPa | 0 mm | 2.68 m/s, 104° | - | - |
| 1777615813 | 20° C | 71% | 1003.1 hPa | 0 mm | 1.79 m/s, 136° | - | - |
| 1777615513 | 19.44° C | 72% | 1003.1 hPa | 0 mm | 3.13 m/s, 128° | - | - |
| 1777615213 | 19.44° C | 72% | 1003.1 hPa | 0 mm | 1.79 m/s, 127° | - | - |
| 1777614913 | 19.44° C | 72% | 1003.1 hPa | 0 mm | 1.79 m/s, 138° | - | - |
| 1777614613 | 20° C | 73% | 1003.1 hPa | 0 mm | 0.89 m/s, 98° | - | - |
| 1777614313 | 19.44° C | 73% | 1002.7 hPa | 0 mm | 0.89 m/s, 131° | - | - |
| 1777614013 | 19.44° C | 73% | 1002.7 hPa | 0 mm | 0 m/s | - | - |
* Rain latest hour (hover to see other rain measurements)
** Current wind speed in m/s (hover to see current wind gust speed)